User: anonymous   Login
Location: Unspecified
(0.0000°N, 0.0000°E)
Time: 12:08:40
(UTC+00:00)
Language:

MetOp-B - Orbit

View from above orbital plane
View from above orbital plane
View from above satellite
View from above satellite

Ground track
Ground track

The orbit data is extracted from the following two-line orbital elements,

1 38771U 12049A   18350.93590278 -.00000008 +00000-0 +16539-4 0  9999
2 38771 098.7316 047.5799 0001985 113.7961 232.8702 14.21476464324095
Epoch (UTC): 16 December 2018 22:27:42
Eccentricity: 0.0001985
inclination: 98.7316°
perigee height: 819 km
apogee height: 822 km
right ascension of ascending node: 47.5799°
argument of perigee: 113.7961°
revolutions per day: 14.21476464
mean anomaly at epoch: 232.8702°
orbit number at epoch: 32409

The dashed part of the orbit path shows where the satellite is in the earth's shadow,  

DLR